EDDWEDDN

Guest
Details From EDDW - Bremen
To EDDN - Nurnberg
Flight Number -
Tags Generated
Created
Modified
Stats Distance 229 nm / 425 km
Max Altitude 0 ft / 0 m
Waypoints 3
Social Downloads 1
Likes 0
Share VATSIM

Download

Looking for another format? Having issues loading an existing format? Contact us
Advertisement - Login to hide

Notes

Generated

Route

EDDW TENLO EDDN

ID Type Via Altitude Latitude Longitude Leg Dist Tot Dist Heading (true) Name
O EDDW APT - 0 ft / 0 m 53.04257˚ 8.78424˚ - 0 nm - -
TENLO FIX - 0 ft / 0 m 49.52611˚ 11.04444˚ 227 nm 227 nm 157° / 159° -
O EDDN APT - 0 ft / 0 m 49.50055˚ 11.05918˚ 1 nm 229 nm 159° / 159° -

Altitude Profile

Advertisement - Login to hide

Weather


0- 5 10 15 20 25 30 35+ Temperature / ° C

Clouds and Precipitation
Forecast for 2018-05-21 06:00 UTC. Updated an hour ago

Ground ~20,000 ft ~40,000 ft Winds

EDDW

Details ICAO EDDW (BRE)
Name Bremen
Region Germany - Civil
Timezone Europe/Berlin (UTC+2.0)
Stats Elevation 14 ft / 4 m (AMSL)
Location 53.045715° 8.789003°
Runways 2
Magnetic Variation 2.464° E

METAR

EDDW 210550Z 10008KT CAVOK 15/06 Q1022 NOSIG

Decode

TAF

TAF EDDW 210500Z 2106/2206 08008KT CAVOK BECMG 2107/2110 10015G25KT BECMG 2118/2120 08008KT

Decode

Departure Runways

ID Width Length Bearing (true) Bearing (mag) Surface Threshold Offset Overrun Length
05 75 ft / 23 m 2,298 ft / 700 m 51.18° 48.72° Asphalt 0 ft / 0 m 0 ft / 0 m
09 151 ft / 46 m 8,616 ft / 2,626 m 87.78° 85.32° Asphalt 945 ft / 288 m 0 ft / 0 m
23 75 ft / 23 m 2,298 ft / 700 m 231.19° 228.73° Asphalt 0 ft / 0 m 0 ft / 0 m
27 151 ft / 46 m 8,616 ft / 2,626 m 267.82° 265.36° Asphalt 984 ft / 300 m 0 ft / 0 m

EDDN

Details ICAO EDDN (NUE)
Name Nurnberg
Region Germany - Civil
Timezone Europe/Berlin (UTC+2.0)
Stats Elevation 1,045 ft / 319 m (AMSL)
Location 49.498744° 11.077580°
Runways 1
Magnetic Variation 3.073° E

METAR

EDDN 210550Z 09010KT 050V120 CAVOK 16/08 Q1017 NOSIG

Decode

TAF

TAF EDDN 210500Z 2106/2206 09010KT CAVOK BECMG 2118/2120 08005KT

Decode

Destination Runways

ID Width Length Bearing (true) Bearing (mag) Surface Threshold Offset Overrun Length
10 148 ft / 45 m 8,819 ft / 2,688 m 98.60° 95.53° Asphalt 0 ft / 0 m 0 ft / 0 m
28 148 ft / 45 m 8,819 ft / 2,688 m 278.63° 275.56° Asphalt 0 ft / 0 m 0 ft / 0 m

Approach Navaids

Runway Type Ident Frequency Range Bearing (true) Bearing (mag) Slope Elevation
10 Localiser INUE 111.30 MHz 18 nm / 33 km 98.64° 95.57° - 1,046 ft / 319 m (AMSL)
10 Glidescope INUE 111.30 MHz 10 nm / 19 km 98.61° 95.54° 3.00° 1,022 ft / 312 m (AMSL)
28 Localiser INUW 109.10 MHz 23 nm / 43 km 278.59° 275.51° - 1,122 ft / 342 m (AMSL)
28 Glidescope INUW 109.10 MHz 10 nm / 19 km 278.62° 275.54° 3.00° 1,046 ft / 319 m (AMSL)

Popular Alternatives